Regional Weather Roundup
Issued by NWS

Home | Current Version | Previous Version | Graphics & Text | Print | Product List | Glossary On
Versions: 1 2 3 4 5 6 7 8 9 10 11 12 13 14 15 16 17 18 19 20 21 22 23 24 25 26 27 28
000
ASUS45 KCYS 170510
RWRWY

WYOMING REGIONAL WEATHER ROUNDUP
NATIONAL WEATHER SERVICE CHEYENNE WY
1100 PM MDT WED APR 16 2014

NOTE:  "FAIR" INDICATES FEW OR NO CLOUDS BELOW 12,000 FEET
WITH NO SIGNIFICANT WEATHER AND/OR OBSTRUCTIONS TO VISIBILITY.

WYZ001-170600-
YELLOWSTONE NATIONAL PARK

CITY           SKY/WX    TMP DP  RH WIND       PRES   REMARKS
LK YELLOWSTONE   N/A     29  15  56 CALM      30.04S
W YELLOWSTONE  NOT AVBL

$$
WYZ002>013-054>058-071-098>099-170600-
NORTHERN WYOMING

CITY           SKY/WX    TMP DP  RH WIND       PRES   REMARKS
JACKSON        MOCLDY    27  21  80 NW5       30.03S WCI  21
CODY           CLEAR     34  28  80 CALM      30.02S
GREYBULL       PTCLDY    40  30  67 S3        30.01S
WORLAND        CLEAR     37  30  75 SE8       30.01S WCI  31
SHERIDAN       MIX PCPN  34  32  92 W8        30.08R WCI  27
BUFFALO        CLOUDY    34  27  75 CALM      30.06R
GILLETTE       CLEAR     34  29  82 SW6       30.05F WCI  29
HULETT         FAIR      30  27  86 E3        30.08
NEWCASTLE      CLOUDY    32  32 100 S10       30.11  WCI  24

$$
WYZ014>020-022>026-101>103-170600-
CENTRAL WYOMING

CITY           SKY/WX    TMP DP  RH WIND       PRES   REMARKS
BIG PINEY      CLEAR     29  13  51 N5        30.05S WCI  24
PINEDALE       CLEAR     30  23  74 CALM      30.05F
DUBOIS         FAIR      28  18  64 W6        30.02S WCI  22
LANDER         PTCLDY    36  24  62 W7        30.02S WCI  30
RIVERTON       CLEAR     34  28  79 NE9       30.03R WCI  27
CASPER         MOCLDY    33  30  88 E9        30.06S WCI  25
DOUGLAS        CLOUDY    34  32  92 CALM      30.10R

$$
WYZ021-027>030-104>119-170600-
SOUTHERN WYOMING

CITY           SKY/WX    TMP DP  RH WIND       PRES   REMARKS
EVANSTON       CLEAR     33  12  41 SW5       30.06R WCI  29
KEMMERER       CLEAR     32  16  51 CALM      30.06S
FORT BRIDGER   FAIR      34  13  41 W8        30.09R WCI  27
ROCK SPRINGS   MOCLDY    35  10  35 N9        30.04R WCI  28
DIXON          MOCLDY    32  17  53 NE3       30.04R
RAWLINS        CLEAR     30  16  56 NE5       30.02R WCI  25
SARATOGA       FAIR      27  14  59 S6        30.01S WCI  20
LARAMIE        PTCLDY    30  25  81 SE12      30.02F WCI  20
CHEYENNE       CLOUDY    34  29  82 CALM      30.07F
TORRINGTON     CLOUDY    35  30  82 E13       30.11R WCI  26
PINE BLUFFS    CLOUDY    36  30  80 S10       30.11R WCI  28

$$



USA.gov is the U.S. government's official web portal to all federal, state and local government web resources and services.